Regional Weather Roundup
Issued by NWS

Home | Current Version | Previous Version | Graphics & Text | Print | Product List | Glossary On
Versions: 1 2 3 4 5 6 7 8 9 10 11 12 13 14 15 16 17 18 19 20 21 22 23 24 25 26 27 28 29 30 31 32 33 34 35 36 37 38 39 40 41 42 43 44 45 46 47 48 49 50
139
ASUS44 KLIX 031205
RWRLA
LOUISIANA WEATHER ROUNDUP
NATIONAL WEATHER SERVICE NEW ORLEANS LA
600 AM CST TUE MAR 03 2015

NOTE: "FAIR" INDICATES FEW OR NO CLOUDS BELOW 12,000 FEET WITH NO
      SIGNIFICANT WEATHER AND/OR OBSTRUCTIONS TO VISIBILITY.
      SKY/WX - SKY CONDITION AND SIGNIFICANT WEATHER.
      TMP - AIR TEMPERATURE.    DP   - DEWPOINT TEMPERATURE.
      RH  - RELATIVE HUMIDITY.  PRES - PRESSURE.
      HX  - HEAT INDEX.         WCI  - WIND CHILL INDEX.

*  THESE STATIONS ARE NOT NWS OR FAA STATIONS AND ARE NOT UNDER
   NWS QUALITY CONTROL.

LAZ040-048-061>063-065-066-069-031300-
SOUTHEAST LOUISIANA

CITY           SKY/WX    TMP DP  RH WIND       PRES   REMARKS
N.O. AUDUBON   NOT AVBL
N.O. INTL ARPT FOG       65  64  97 CALM      30.12S VSB 1/8
6HR MIN TEMP:  65; 6HR MAX TEMP:  67;

N.O. LAKEFRONT FOG       66  63  90 SE7       30.13R VSB 1/4
6HR MIN TEMP:  60; 6HR MAX TEMP:  66;

SLIDELL        FOG       64  64 100 S5        30.13R VSB 1/2
6HR MIN TEMP:  64; 6HR MAX TEMP:  65;

BATON ROUGE    FOG       58  58 100 CALM      30.11S VSB 1/2
6HR MIN TEMP:  56; 6HR MAX TEMP:  58;

BOOTHVILLE     FOG       62  62 100 SE5       30.14R VSB 1/4
6HR MIN TEMP:  62; 6HR MAX TEMP:  64;

BELLE CHASSE   FOG       66  64  93 SE5       30.12R VSB 1/4
6HR MIN TEMP:  63; 6HR MAX TEMP:  67;

BOGALUSA*      FOG       66  63  91 S3        30.14S VSB 1/2
6HR MIN TEMP:  64; 6HR MAX TEMP:  66;

GALLIANO*      FOG       56  56  97 MISG      30.12S VSB 1/4
6HR MIN TEMP:  55; 6HR MAX TEMP:  58;

NEW ROADS*     FOG       52  51  98 CALM      30.11S VSB 1/4
6HR MIN TEMP:  50; 6HR MAX TEMP:  52;

GONZALES*      FOG       64  64 100 CALM      30.11S VSB 1/4
6HR MIN TEMP:  63; 6HR MAX TEMP:  65;

HAMMOND*       NOT AVBL
HOUMA*         FOG       43  43 100 CALM      30.12R VSB 1/4
PORT FOURCHON* FOG       66  64  94 SE8       30.15S VSB 1/2

$$

LAZ041-044-053-054-031300-
SOUTHWEST LOUISIANA

CITY           SKY/WX    TMP DP  RH WIND       PRES   REMARKS
LAKE CHARLES   FOG       54  53  97 E5        30.07F VSB 3/4
6HR MIN TEMP:  53; 6HR MAX TEMP:  54; 6HR PCP:  0.01;

LAFAYETTE      FOG       54  54 100 CALM      30.10S VSB 1/2
6HR MIN TEMP:  53; 6HR MAX TEMP:  54;

PATTERSON      CLOUDY    66  64  94 SE5       30.10S VSB 3/4
6HR MIN TEMP:  66; 6HR MAX TEMP:  66;

SALT POINT       N/A     65  64  97 SE5       30.09R
6HR MIN TEMP:  65; 6HR MAX TEMP:  67;

NEW IBERIA     FOG       58  57  97 NE3       30.11R VSB 1/4
6HR MIN TEMP:  57; 6HR MAX TEMP:  58;

CHENAULT AIRPK NOT AVBL

$$

LAZ027-028-031300-
CENTRAL LOUISIANA

CITY           SKY/WX    TMP DP  RH WIND       PRES   REMARKS
FORT POLK      FOG       49  49  99 E3        30.07F VSB 1/2
6HR MIN TEMP:  47; 6HR MAX TEMP:  49;

ALEXANDRIA INT CLOUDY    46  46 100 E6        30.08F FOG
6HR MIN TEMP:  44; 6HR MAX TEMP:  46;

ALEXANDRIA     CLOUDY    45  45 100 CALM      30.10S
6HR MIN TEMP:  44; 6HR MAX TEMP:  45;


$$

LAZ001-002-031300-
NORTHWEST LOUISIANA

CITY           SKY/WX    TMP DP  RH WIND       PRES   REMARKS
SHREVEPORT     FOG       44  44 100 S3        30.07R VSB 1/2
6HR MIN TEMP:  42; 6HR MAX TEMP:  44; 6HR PCP: TRACE;

BARKSDALE AFB  CLOUDY    43  43 100 S6        30.07R
6HR MIN TEMP:  40; 6HR MAX TEMP:  43;

DTN SHREVEPORT CLOUDY    43  41  93 S6        30.08R FOG
6HR MIN TEMP:  40; 6HR MAX TEMP:  43;


$$

LAZ014-016-031300-
NORTHEAST LOUISIANA

CITY           SKY/WX    TMP DP  RH WIND       PRES   REMARKS
MONROE         CLOUDY    42  42 100 CALM      30.11F FOG
6HR MIN TEMP:  40; 6HR MAX TEMP:  42;

TALLULAH       FOG       46  45  96 CALM      30.12S VSB 3/4
6HR MIN TEMP:  44; 6HR MAX TEMP:  46;


$$




USA.gov is the U.S. government's official web portal to all federal, state and local government web resources and services.